Location: Unspecified
(42.9300°N, 71.1866°W)
Time: 04:07:14
(UTC-04:00)

Cosmos 1674 - Visible Passes

Search period start: 26 June 2016 00:00
Search period end: 06 July 2016 00:00
Orbit: 502 x 524 km, 82.5° (Epoch: 25 June)

Date Brightness Start Highest point End Pass type
(mag) Time Alt. Az. Time Alt. Az. Time Alt. Az.
26 Jun 3.9 21:55:53 10° SSW 21:59:30 41° WNW 22:03:12 10° N visible
27 Jun 3.5 21:39:58 10° SSW 21:43:42 52° W 21:47:29 10° N visible
28 Jun 3.1 21:24:05 10° SSW 21:27:53 67° W 21:31:46 10° N visible
29 Jun 2.8 21:08:16 10° S 21:12:06 84° W 21:16:00 10° N visible
01 Jul 6.2 22:16:14 10° WNW 22:16:38 10° WNW 22:17:02 10° WNW visible
02 Jul 5.9 21:59:02 10° W 22:00:44 12° WNW 22:02:27 10° NW visible
03 Jul 5.7 21:42:32 10° WSW 21:44:51 15° WNW 21:47:12 10° NNW visible
04 Jul 5.6 21:26:14 10° WSW 21:28:59 18° WNW 21:31:46 10° NNW visible
05 Jul 5.5 21:10:03 10° SW 21:13:07 22° WNW 21:16:14 10° NNW visible
